AB8KN-2 Weather Reports


Display with metric or nautical units.
time (UTC)temp
F
wind
direction
speed
MPH
gust
MPH
rain 1hr
in
rain 24hr
in
rain mn
in
humidity
%
barometer
mb
20260904075016 74 65 0.0 0.0 0.00 0.00 0.00 89 1015.3
20260904074016 74 68 0.0 0.0 0.00 0.00 0.00 88 1015.3
20260904073016 75 64 0.0 0.0 0.00 0.00 0.00 87 1015.4
20260904072016 75 351 0.0 1.0 0.00 0.00 0.00 86 1015.4
20260904071036 75 0.0 0.0 0.00 0.00 0.00 85 1015.5
20260904070016 75 224 0.0 2.0 0.00 0.00 0.00 85 1015.5
20260904065017 75 14 0.0 0.0 0.00 0.00 0.00 84 1015.6
20260904064017 76 228 0.0 2.0 0.00 0.00 0.00 84 1015.6
20260904063017 76 224 0.0 1.0 0.00 0.00 0.00 83 1015.6
20260904062017 76 224 0.0 3.0 0.00 0.00 0.00 82 1015.6
20260904061017 76 221 0.0 1.0 0.00 0.00 0.00 82 1015.6
20260904060018 76 234 0.0 1.0 0.00 0.00 0.00 82 1015.7
20260904055038 76 0.0 0.0 0.00 0.00 0.00 82 1015.8
20260904054038 77 165 0.0 2.0 0.00 0.00 0.00 82 1015.9
20260904053015 77 0.0 0.0 0.00 0.00 0.00 81 1016.0
20260904052035 77 79 0.0 1.0 0.00 0.00 0.00 81 1016.0
20260904051016 77 0.0 0.0 0.00 0.00 0.00 81 1016.1
20260904050016 77 277 0.0 2.0 0.00 0.00 0.00 81 1016.1
20260904045016 77 95 0.0 2.0 0.00 0.00 0.00 81 1016.1
20260904044016 77 0.0 0.0 0.00 0.00 0.00 80 1016.1
20260904043016 77 0.0 0.0 0.00 0.00 0.00 80 1016.1
20260904042017 77 0.0 0.0 0.00 0.00 0.00 79 1015.9
20260904041017 77 0.0 0.0 0.00 0.00 0.00 79 1015.9
20260904040058 77 84 0.0 2.0 0.00 0.00 0.00 79 1016.0
20260904035057 77 67 0.0 2.0 0.00 0.00 0.00 79 1016.0
20260904034017 77 63 0.0 3.0 0.00 0.00 0.00 80 1016.1
20260904033018 77 0.0 0.0 0.00 0.00 0.00 79 1016.1
20260904032018 78 297 0.0 1.0 0.00 0.00 0.00 78 1016.2
20260904031018 78 0.0 0.0 0.00 0.00 0.00 77 1016.2
20260904030015 78 0.0 0.0 0.00 0.00 0.00 76 1016.2
20260904025015 79 310 0.0 1.0 0.00 0.00 0.00 76 1016.2
20260904024016 79 269 0.0 2.0 0.00 0.00 0.00 75 1016.4
20260904023015 80 298 0.0 2.0 0.00 0.00 0.00 74 1016.2
20260904022016 80 289 0.0 3.0 0.00 0.00 0.00 73 1016.2
20260904021016 80 310 0.0 3.0 0.00 0.00 0.00 73 1016.1
20260904020037 81 289 0.0 3.0 0.00 0.00 0.00 72 1015.8
20260904015016 81 285 0.0 2.0 0.00 0.00 0.00 72 1015.8
20260904014017 81 316 0.0 2.0 0.00 0.00 0.00 71 1015.7
20260904013017 82 298 0.0 3.0 0.00 0.00 0.00 70 1015.7
20260904012017 83 278 1.0 3.0 0.00 0.00 0.00 69 1015.5
20260904011017 85 305 1.0 3.0 0.00 0.00 0.00 67 1015.6
20260904010017 86 309 1.0 4.0 0.00 0.00 0.00 66 1015.6
20260904005017 87 0.0 0.0 0.00 0.00 0.00 65 1015.5
20260904004018 87 277 0.0 2.0 0.00 0.00 0.00 64 1015.4
20260904003018 87 241 0.0 1.0 0.00 0.00 0.00 63 1015.1
20260904002018 88 238 0.0 2.0 0.00 0.00 0.00 62 1015.1
20260904001055 89 294 0.0 3.0 0.00 0.00 0.00 61 1015.2
20260904000015 89 286 0.0 1.0 0.00 0.00 0.00 60 1015.3
20260903235016 90 286 1.0 3.0 0.00 0.00 0.00 59 1015.3
20260903234036 90 279 0.0 2.0 0.00 0.00 0.00 58 1015.3
20260903233016 91 282 1.0 4.0 0.00 0.00 0.00 57 1015.0
20260903232016 91 281 1.0 3.0 0.00 0.00 0.00 55 1014.8
20260903231016 91 272 1.0 4.0 0.00 0.00 0.00 54 1014.8
20260903230016 92 244 1.0 6.0 0.00 0.00 0.00 53 1014.8
20260903225017 92 249 1.0 4.0 0.00 0.00 0.00 53 1014.9
20260903224016 93 290 1.0 4.0 0.00 0.00 0.00 52 1014.9
20260903223017 93 257 2.0 7.0 0.00 0.00 0.00 52 1014.9
20260903222017 93 263 1.0 3.0 0.00 0.00 0.00 51 1014.9
20260903221018 93 255 2.0 8.0 0.00 0.00 0.00 50 1014.7
20260903220017 93 220 2.0 5.0 0.00 0.00 0.00 52 1014.6
20260903215018 94 210 2.0 6.0 0.00 0.00 0.00 52 1014.6
20260903214017 94 200 2.0 5.0 0.00 0.00 0.00 51 1014.5
20260903213018 94 206 1.0 4.0 0.00 0.00 0.00 51 1014.1
20260903212018 95 236 2.0 6.0 0.00 0.00 0.00 51 1014.0
20260903211016 95 222 1.0 4.0 0.00 0.00 0.00 51 1014.0
20260903210015 96 202 2.0 5.0 0.00 0.00 0.00 49 1013.8
20260903205015 97 250 1.0 5.0 0.00 0.00 0.00 48 1013.7
20260903204016 96 207 1.0 5.0 0.00 0.00 0.00 50 1013.8
20260903203016 96 204 2.0 7.0 0.00 0.00 0.00 49 1013.8
20260903202016 96 190 2.0 6.0 0.00 0.00 0.00 48 1013.9
20260903201016 96 239 2.0 7.0 0.00 0.00 0.00 47 1014.3
20260903200056 96 267 2.0 5.0 0.00 0.00 0.00 51 1014.4
20260903195017 97 273 2.0 7.0 0.00 0.00 0.00 49 1014.6
20260903194017 97 198 2.0 6.0 0.00 0.00 0.00 46 1014.9
20260903193017 95 250 1.0 5.0 0.00 0.00 0.00 49 1015.1
20260903192017 95 288 2.0 5.0 0.00 0.00 0.00 50 1015.3
20260903191016 97 229 2.0 5.0 0.00 0.00 0.00 48 1015.3
20260903190016 97 239 2.0 6.0 0.00 0.00 0.00 48 1015.4
20260903185016 96 278 2.0 6.0 0.00 0.00 0.00 49 1015.3
20260903184016 96 279 1.0 5.0 0.00 0.00 0.00 48 1015.4
20260903183016 96 256 2.0 5.0 0.00 0.00 0.00 49 1015.4
20260903182015 97 192 2.0 5.0 0.00 0.00 0.00 47 1015.6
20260903181017 96 284 2.0 6.0 0.00 0.00 0.00 49 1015.8
20260903180016 96 275 1.0 4.0 0.00 0.00 0.00 50 1015.9
20260903175016 96 269 2.0 5.0 0.00 0.00 0.00 49 1016.0
20260903174016 96 229 2.0 5.0 0.00 0.00 0.00 50 1016.1
20260903173016 95 214 2.0 5.0 0.00 0.00 0.00 52 1016.2
20260903172016 95 253 2.0 6.0 0.00 0.00 0.00 51 1016.2
20260903171016 95 245 2.0 6.0 0.00 0.00 0.00 53 1016.3
20260903170037 94 284 2.0 6.0 0.00 0.00 0.00 54 1016.4
20260903165017 94 282 3.0 9.0 0.00 0.00 0.00 54 1016.4
20260903164017 93 303 2.0 6.0 0.00 0.00 0.00 55 1016.5
20260903163016 93 244 1.0 3.0 0.00 0.00 0.00 57 1016.5
20260903162039 92 271 1.0 5.0 0.00 0.00 0.00 58 1016.7
20260903161017 92 261 1.0 6.0 0.00 0.00 0.00 59 1016.8
20260903160018 91 226 2.0 5.0 0.00 0.00 0.00 60 1016.8
20260903155018 91 232 1.0 6.0 0.00 0.00 0.00 60 1016.9
20260903154018 91 268 1.0 4.0 0.00 0.00 0.00 60 1016.9
20260903153038 91 277 2.0 9.0 0.00 0.00 0.00 60 1016.9
20260903152018 91 267 1.0 5.0 0.00 0.00 0.00 60 1016.8
20260903151035 91 264 1.0 4.0 0.00 0.00 0.00 60 1016.8
20260903150056 90 225 1.0 4.0 0.00 0.00 0.00 61 1016.8
20260903145016 89 210 1.0 4.0 0.00 0.00 0.00 62 1016.8
20260903144016 89 290 1.0 5.0 0.00 0.00 0.00 63 1016.9
20260903143016 89 224 2.0 5.0 0.00 0.00 0.00 63 1016.9
20260903142036 88 244 1.0 4.0 0.00 0.00 0.00 64 1016.9
20260903141016 87 233 1.0 4.0 0.00 0.00 0.00 65 1016.9
20260903140036 86 241 2.0 6.0 0.00 0.00 0.00 66 1016.9
20260903135017 86 274 1.0 5.0 0.00 0.00 0.00 67 1017.0
20260903134057 85 243 1.0 5.0 0.00 0.00 0.00 69 1017.1
20260903133017 85 231 1.0 3.0 0.00 0.00 0.00 69 1017.2
20260903132017 84 239 2.0 4.0 0.00 0.00 0.00 70 1017.2
20260903131017 84 227 1.0 4.0 0.00 0.00 0.00 71 1017.3
20260903130037 83 231 1.0 3.0 0.00 0.00 0.00 72 1017.4
20260903125015 83 261 1.0 3.0 0.00 0.00 0.00 72 1017.4
20260903124015 82 215 0.0 3.0 0.00 0.00 0.00 73 1017.4
20260903123015 81 220 1.0 4.0 0.00 0.00 0.00 75 1017.4
20260903122016 80 205 0.0 2.0 0.00 0.00 0.00 77 1017.4
20260903121016 79 227 0.0 4.0 0.00 0.00 0.00 78 1017.3
20260903120016 78 246 1.0 3.0 0.00 0.00 0.00 80 1017.2
20260903115016 78 353 0.0 1.0 0.00 0.00 0.00 81 1017.1
20260903114056 77 257 0.0 4.0 0.00 0.00 0.00 82 1017.0
20260903113016 77 245 0.0 2.0 0.00 0.00 0.00 83 1017.0
20260903112016 77 54 0.0 1.0 0.00 0.00 0.00 83 1016.9
20260903111016 76 251 0.0 2.0 0.00 0.00 0.00 84 1016.8
20260903110017 76 215 0.0 2.0 0.00 0.00 0.00 84 1016.7
20260903105017 76 0.0 0.0 0.00 0.00 0.00 84 1016.6
20260903104017 76 263 0.0 2.0 0.00 0.00 0.00 84 1016.5
20260903103017 77 212 0.0 1.0 0.00 0.00 0.00 83 1016.4
20260903102017 77 258 0.0 1.0 0.00 0.00 0.00 83 1016.4
20260903101018 77 359 0.0 1.0 0.00 0.00 0.00 82 1016.4
20260903100018 78 281 0.0 2.0 0.00 0.00 0.00 82 1016.3
20260903095018 78 221 0.0 1.0 0.00 0.00 0.00 81 1016.2
20260903094015 78 239 0.0 1.0 0.00 0.00 0.00 80 1016.2
20260903093015 78 235 1.0 3.0 0.00 0.00 0.00 81 1016.2
20260903092036 78 249 0.0 3.0 0.00 0.00 0.00 81 1016.2
20260903091016 78 219 0.0 2.0 0.00 0.00 0.00 80 1016.3
20260903090016 79 223 0.0 3.0 0.00 0.00 0.00 79 1016.2
20260903085016 79 245 0.0 3.0 0.00 0.00 0.00 79 1016.2
20260903084016 79 185 0.0 4.0 0.00 0.00 0.00 79 1016.2
20260903083016 79 273 0.0 2.0 0.00 0.00 0.00 78 1016.2
20260903082017 80 250 0.0 2.0 0.00 0.00 0.00 78 1016.2
20260903081017 80 233 1.0 3.0 0.00 0.00 0.00 77 1016.2
20260903080038 80 245 1.0 4.0 0.00 0.00 0.00 77 1016.2